Time,TemperatureF,DewpointF,PressureIn,WindDirection,WindDirectionDegrees,WindSpeedMPH,WindSpeedGustMPH,Humidity,HourlyPrecipIn,Conditions,Clouds,dailyrainin,SoftwareType,DateUTC
2013-05-28 00:00:00,72.7,-12.6,17.72,South,182,2.7,5.4,3,0.00,,---,0.00,VWS V13.01,2013-05-28 07:00:00,
2013-05-28 00:05:00,72.5,-12.7,17.72,South,178,4.9,5.8,3,0.00,,---,0.00,VWS V13.01,2013-05-28 07:05:00,
2013-05-28 00:11:00,72.3,-12.8,17.72,SSE,156,3.6,3.6,3,0.00,,---,0.00,VWS V13.01,2013-05-28 07:11:00,
2013-05-28 00:16:00,72.0,-13.1,17.72,SSE,156,0.0,0.0,3,0.00,,---,0.00,VWS V13.01,2013-05-28 07:16:00,
2013-05-28 00:21:00,71.8,-13.2,17.72,SSE,155,0.0,0.0,3,0.00,,---,0.00,VWS V13.01,2013-05-28 07:21:00,
2013-05-28 00:26:00,71.6,-13.3,17.72,SSE,155,0.0,0.0,3,0.00,,---,0.00,VWS V13.01,2013-05-28 07:26:00,
2013-05-28 00:31:00,71.4,-13.4,17.72,South,171,0.0,5.4,3,0.00,,---,0.00,VWS V13.01,2013-05-28 07:31:00,
2013-05-28 00:36:00,71.4,-13.4,17.72,South,171,0.0,0.0,3,0.00,,---,0.00,VWS V13.01,2013-05-28 07:36:00,
2013-05-28 00:42:00,71.4,-13.4,17.72,South,186,0.0,3.1,3,0.00,,---,0.00,VWS V13.01,2013-05-28 07:42:00,
2013-05-28 00:47:00,71.2,-13.6,17.72,South,186,0.0,0.0,3,0.00,,---,0.00,VWS V13.01,2013-05-28 07:47:00,
2013-05-28 00:52:00,71.1,-13.7,17.72,SSE,151,0.0,3.1,3,0.00,,---,0.00,VWS V13.01,2013-05-28 07:52:00,
2013-05-28 00:57:00,71.1,-13.7,17.72,SSE,151,0.0,0.0,3,0.00,,---,0.00,VWS V13.01,2013-05-28 07:57:00,
2013-05-28 01:03:00,70.7,-13.9,17.72,SSE,151,0.0,0.0,3,0.00,,---,0.00,VWS V13.01,2013-05-28 08:03:00,
2013-05-28 01:08:00,70.7,-13.9,17.72,SSE,150,0.0,0.0,3,0.00,,---,0.00,VWS V13.01,2013-05-28 08:08:00,
2013-05-28 01:13:00,70.7,-13.9,17.72,East,98,0.0,4.0,3,0.00,,---,0.00,VWS V13.01,2013-05-28 08:13:00,
2013-05-28 01:18:00,70.7,-13.9,17.72,ESE,116,0.0,4.9,3,0.00,,---,0.00,VWS V13.01,2013-05-28 08:18:00,
2013-05-28 01:23:00,70.7,-13.9,17.72,SE,133,4.9,4.9,3,0.00,,---,0.00,VWS V13.01,2013-05-28 08:23:00,
2013-05-28 01:28:00,70.9,-13.8,17.72,SE,125,4.5,4.5,3,0.00,,---,0.00,VWS V13.01,2013-05-28 08:28:00,
2013-05-28 01:34:00,70.9,-13.8,17.72,ESE,118,4.0,5.8,3,0.00,,---,0.00,VWS V13.01,2013-05-28 08:34:00,
2013-05-28 01:39:00,70.9,-13.8,17.72,East,89,2.7,2.7,3,0.00,,---,0.00,VWS V13.01,2013-05-28 08:39:00,
2013-05-28 01:44:00,70.5,-14.0,17.72,East,89,0.0,0.0,3,0.00,,---,0.00,VWS V13.01,2013-05-28 08:44:00,
2013-05-28 01:50:00,69.8,-14.5,17.72,East,89,0.0,0.0,3,0.00,,---,0.00,VWS V13.01,2013-05-28 08:50:00,
2013-05-28 01:55:00,69.4,-9.0,17.72,East,89,0.0,0.0,4,0.00,,---,0.00,VWS V13.01,2013-05-28 08:55:00,
2013-05-28 02:00:00,69.1,-9.3,17.72,East,89,0.0,0.0,4,0.00,,---,0.00,VWS V13.01,2013-05-28 09:00:00,
2013-05-28 02:05:00,68.5,-9.6,17.72,ENE,66,0.0,0.0,4,0.00,,---,0.00,VWS V13.01,2013-05-28 09:05:00,
2013-05-28 02:10:00,67.8,-10.1,17.72,ENE,67,0.0,0.0,4,0.00,,---,0.00,VWS V13.01,2013-05-28 09:10:00,
2013-05-28 02:15:00,67.5,-10.4,17.72,ENE,67,0.0,0.0,4,0.00,,---,0.00,VWS V13.01,2013-05-28 09:15:00,
2013-05-28 02:21:00,67.1,-10.6,17.72,ENE,67,0.0,0.0,4,0.00,,---,0.00,VWS V13.01,2013-05-28 09:21:00,
2013-05-28 02:26:00,66.7,-10.9,17.72,ENE,67,0.0,0.0,4,0.00,,---,0.00,VWS V13.01,2013-05-28 09:26:00,
2013-05-28 02:31:00,66.7,-10.9,17.72,ENE,67,0.0,0.0,4,0.00,,---,0.00,VWS V13.01,2013-05-28 09:31:00,
2013-05-28 02:36:00,66.9,-10.8,17.72,ENE,67,0.0,0.0,4,0.00,,---,0.00,VWS V13.01,2013-05-28 09:36:00,
2013-05-28 02:41:00,66.7,-10.9,17.72,ENE,67,0.0,0.0,4,0.00,,---,0.00,VWS V13.01,2013-05-28 09:41:00,
2013-05-28 02:46:00,66.4,-11.1,17.72,ENE,67,0.0,0.0,4,0.00,,---,0.00,VWS V13.01,2013-05-28 09:46:00,
2013-05-28 02:51:00,66.0,-11.4,17.72,ENE,67,0.0,0.0,4,0.00,,---,0.00,VWS V13.01,2013-05-28 09:51:00,
2013-05-28 02:57:00,65.7,-11.6,17.72,ENE,67,0.0,0.0,4,0.00,,---,0.00,VWS V13.01,2013-05-28 09:57:00,
2013-05-28 03:02:00,65.5,-11.8,17.72,ENE,67,0.0,0.0,4,0.00,,---,0.00,VWS V13.01,2013-05-28 10:02:00,
2013-05-28 03:07:00,65.1,-12.0,17.72,ENE,67,0.0,0.0,4,0.00,,---,0.00,VWS V13.01,2013-05-28 10:07:00,
2013-05-28 03:13:00,64.9,-12.1,17.72,ENE,67,0.0,0.0,4,0.00,,---,0.00,VWS V13.01,2013-05-28 10:13:00,
2013-05-28 03:18:00,64.6,-12.4,17.72,ENE,67,0.0,0.0,4,0.00,,---,0.00,VWS V13.01,2013-05-28 10:18:00,
2013-05-28 03:23:00,64.2,-8.1,17.72,ENE,67,0.0,0.0,5,0.00,,---,0.00,VWS V13.01,2013-05-28 10:23:00,
2013-05-28 03:28:00,64.0,-8.3,17.72,ENE,67,0.0,0.0,5,0.00,,---,0.00,VWS V13.01,2013-05-28 10:28:00,
2013-05-28 03:33:00,63.9,-8.4,17.72,ENE,67,0.0,0.0,5,0.00,,---,0.00,VWS V13.01,2013-05-28 10:33:00,
2013-05-28 03:38:00,63.9,-8.4,17.72,ENE,67,0.0,0.0,5,0.00,,---,0.00,VWS V13.01,2013-05-28 10:38:00,
2013-05-28 03:44:00,63.7,-8.5,17.72,ENE,67,0.0,0.0,5,0.00,,---,0.00,VWS V13.01,2013-05-28 10:44:00,
2013-05-28 03:49:00,63.7,-8.5,17.72,ENE,67,0.0,0.0,5,0.00,,---,0.00,VWS V13.01,2013-05-28 10:49:00,
2013-05-28 03:54:00,63.7,-8.5,17.72,ENE,67,0.0,0.0,5,0.00,,---,0.00,VWS V13.01,2013-05-28 10:54:00,
2013-05-28 03:59:00,63.5,-8.6,17.72,ENE,67,0.0,0.0,5,0.00,,---,0.00,VWS V13.01,2013-05-28 10:59:00,
2013-05-28 04:04:00,63.3,-8.8,17.72,ENE,67,0.0,0.0,5,0.00,,---,0.00,VWS V13.01,2013-05-28 11:04:00,
2013-05-28 04:09:00,63.1,-8.9,17.72,ENE,67,0.0,0.0,5,0.00,,---,0.00,VWS V13.01,2013-05-28 11:09:00,
2013-05-28 04:15:00,63.1,-8.9,17.72,ENE,67,0.0,0.0,5,0.00,,---,0.00,VWS V13.01,2013-05-28 11:15:00,
2013-05-28 04:20:00,63.0,-9.0,17.72,ENE,67,0.0,0.0,5,0.00,,---,0.00,VWS V13.01,2013-05-28 11:20:00,
2013-05-28 04:25:00,63.0,-9.0,17.72,ENE,67,0.0,0.0,5,0.00,,---,0.00,VWS V13.01,2013-05-28 11:25:00,
2013-05-28 04:30:00,63.0,-9.0,17.72,ENE,67,0.0,0.0,5,0.00,,---,0.00,VWS V13.01,2013-05-28 11:30:00,
2013-05-28 04:36:00,63.0,-9.0,17.72,ENE,67,0.0,0.0,5,0.00,,---,0.00,VWS V13.01,2013-05-28 11:36:00,
2013-05-28 04:41:00,63.0,-9.0,17.72,ENE,67,0.0,0.0,5,0.00,,---,0.00,VWS V13.01,2013-05-28 11:41:00,
2013-05-28 04:46:00,62.8,-9.2,17.72,ENE,67,0.0,0.0,5,0.00,,---,0.00,VWS V13.01,2013-05-28 11:46:00,
2013-05-28 04:51:00,62.8,-9.2,17.72,ENE,67,0.0,0.0,5,0.00,,---,0.00,VWS V13.01,2013-05-28 11:51:00,
2013-05-28 04:57:00,62.6,-9.3,17.72,ENE,67,0.0,0.0,5,0.00,,---,0.00,VWS V13.01,2013-05-28 11:57:00,
2013-05-28 05:02:00,62.4,-9.4,17.72,ENE,67,0.0,0.0,5,0.00,,---,0.00,VWS V13.01,2013-05-28 12:02:00,
2013-05-28 05:07:00,62.2,-9.6,17.72,ENE,67,0.0,0.0,5,0.00,,---,0.00,VWS V13.01,2013-05-28 12:07:00,
2013-05-28 05:13:00,62.1,-9.7,17.72,ENE,67,0.0,0.0,5,0.00,,---,0.00,VWS V13.01,2013-05-28 12:13:00,
2013-05-28 05:18:00,61.9,-9.8,17.72,ENE,67,0.0,0.0,5,0.00,,---,0.00,VWS V13.01,2013-05-28 12:18:00,
2013-05-28 05:23:00,61.7,-9.9,17.72,ENE,67,0.0,2.2,5,0.00,,---,0.00,VWS V13.01,2013-05-28 12:23:00,
2013-05-28 05:28:00,61.9,-9.8,17.72,SSE,149,8.1,8.1,5,0.00,,---,0.00,VWS V13.01,2013-05-28 12:28:00,
2013-05-28 05:34:00,62.6,-9.3,17.72,East,99,7.2,7.2,5,0.00,,---,0.00,VWS V13.01,2013-05-28 12:34:00,
2013-05-28 05:39:00,63.3,-8.8,17.72,SE,126,6.3,6.3,5,0.00,,---,0.00,VWS V13.01,2013-05-28 12:39:00,
2013-05-28 05:44:00,64.0,-8.3,17.72,ESE,119,0.0,5.4,5,0.00,,---,0.00,VWS V13.01,2013-05-28 12:44:00,
2013-05-28 05:49:00,64.6,-12.4,17.72,SE,136,0.0,4.0,4,0.00,,---,0.00,VWS V13.01,2013-05-28 12:49:00,
2013-05-28 05:55:00,65.1,-12.0,17.72,ESE,107,0.0,0.0,4,0.00,,---,0.00,VWS V13.01,2013-05-28 12:55:00,
2013-05-28 06:00:00,65.5,-11.8,17.72,East,92,0.0,3.6,4,0.00,,---,0.00,VWS V13.01,2013-05-28 13:00:00,
2013-05-28 06:05:00,65.8,-11.5,17.72,East,79,0.0,4.0,4,0.00,,---,0.00,VWS V13.01,2013-05-28 13:05:00,
2013-05-28 06:10:00,66.4,-11.1,17.72,ESE,123,0.0,4.0,4,0.00,,---,0.00,VWS V13.01,2013-05-28 13:10:00,
2013-05-28 06:16:00,66.9,-10.8,17.72,East,92,0.0,4.0,4,0.00,,---,0.00,VWS V13.01,2013-05-28 13:16:00,
2013-05-28 06:21:00,67.5,-10.4,17.72,East,92,2.7,3.6,4,0.00,,---,0.00,VWS V13.01,2013-05-28 13:21:00,
2013-05-28 06:27:00,67.8,-10.1,17.72,SE,125,2.7,5.4,4,0.00,,---,0.00,VWS V13.01,2013-05-28 13:27:00,
2013-05-28 06:32:00,68.5,-9.6,17.72,ESE,122,0.0,4.0,4,0.00,,---,0.00,VWS V13.01,2013-05-28 13:32:00,
2013-05-28 06:37:00,69.1,-9.3,17.72,SE,127,5.8,6.3,4,0.00,,---,0.00,VWS V13.01,2013-05-28 13:37:00,
2013-05-28 06:42:00,69.6,-8.9,17.72,SE,137,2.7,5.4,4,0.00,,---,0.00,VWS V13.01,2013-05-28 13:42:00,
2013-05-28 06:48:00,70.3,-14.2,17.72,ESE,105,2.7,5.4,3,0.00,,---,0.00,VWS V13.01,2013-05-28 13:48:00,
2013-05-28 06:53:00,71.1,-13.7,17.72,East,99,0.0,0.0,3,0.00,,---,0.00,VWS V13.01,2013-05-28 13:53:00,
2013-05-28 06:58:00,71.4,-13.4,17.72,East,99,0.0,0.0,3,0.00,,---,0.00,VWS V13.01,2013-05-28 13:58:00,
2013-05-28 07:03:00,71.4,-13.4,17.72,ENE,66,0.0,0.0,3,0.00,,---,0.00,VWS V13.01,2013-05-28 14:03:00,
2013-05-28 07:08:00,71.8,-13.2,17.72,ENE,64,0.0,0.0,3,0.00,,---,0.00,VWS V13.01,2013-05-28 14:08:00,
2013-05-28 07:13:00,72.0,-13.1,17.72,NE,47,0.0,0.0,3,0.00,,---,0.00,VWS V13.01,2013-05-28 14:13:00,
2013-05-28 07:19:00,72.7,-12.6,17.72,NE,51,0.0,0.0,3,0.00,,---,0.00,VWS V13.01,2013-05-28 14:19:00,
2013-05-28 07:24:00,73.6,-19.9,17.72,NE,52,0.0,0.0,2,0.00,,---,0.00,VWS V13.01,2013-05-28 14:24:00,
2013-05-28 07:29:00,74.3,-19.5,17.72,East,89,0.0,4.9,2,0.00,,---,0.00,VWS V13.01,2013-05-28 14:29:00,
2013-05-28 07:34:00,74.8,-19.1,17.72,East,95,0.0,4.0,2,0.00,,---,0.00,VWS V13.01,2013-05-28 14:34:00,
2013-05-28 07:39:00,75.6,-18.6,17.72,East,94,0.0,3.6,2,0.00,,---,0.00,VWS V13.01,2013-05-28 14:39:00,
2013-05-28 07:45:00,76.1,-18.3,17.72,East,93,0.0,0.0,2,0.00,,---,0.00,VWS V13.01,2013-05-28 14:45:00,
2013-05-28 07:50:00,76.8,-17.8,17.72,ENE,60,4.0,4.0,2,0.00,,---,0.00,VWS V13.01,2013-05-28 14:50:00,
2013-05-28 07:55:00,77.4,-17.5,17.72,ENE,61,0.0,0.0,2,0.00,,---,0.00,VWS V13.01,2013-05-28 14:55:00,
2013-05-28 08:00:00,77.7,-17.3,17.72,ENE,62,0.0,3.1,2,0.00,,---,0.00,VWS V13.01,2013-05-28 15:00:00,
2013-05-28 08:06:00,78.4,-16.8,17.72,ENE,63,0.0,0.0,2,0.00,,---,0.00,VWS V13.01,2013-05-28 15:06:00,
2013-05-28 08:11:00,78.6,-16.7,17.72,ENE,63,0.0,0.0,2,0.00,,---,0.00,VWS V13.01,2013-05-28 15:11:00,
2013-05-28 08:16:00,79.3,-16.2,17.72,ENE,63,0.0,0.0,2,0.00,,---,0.00,VWS V13.01,2013-05-28 15:16:00,
2013-05-28 08:22:00,79.7,-16.0,17.72,SSW,193,0.0,4.9,2,0.00,,---,0.00,VWS V13.01,2013-05-28 15:22:00,
2013-05-28 08:27:00,79.7,-16.0,17.72,SSW,209,0.0,0.0,2,0.00,,---,0.00,VWS V13.01,2013-05-28 15:27:00,
2013-05-28 08:32:00,79.9,-15.9,17.72,SSW,209,0.0,0.0,2,0.00,,---,0.00,VWS V13.01,2013-05-28 15:32:00,
2013-05-28 08:37:00,80.4,-15.5,17.72,SSW,209,0.0,0.0,2,0.00,,---,0.00,VWS V13.01,2013-05-28 15:37:00,
2013-05-28 08:42:00,81.1,-15.1,17.72,SSW,204,0.0,0.0,2,0.00,,---,0.00,VWS V13.01,2013-05-28 15:42:00,
2013-05-28 08:47:00,81.5,-14.8,17.72,SW,231,0.0,0.0,2,0.00,,---,0.00,VWS V13.01,2013-05-28 15:47:00,
2013-05-28 08:52:00,81.9,-14.6,17.72,SSW,208,5.4,5.4,2,0.00,,---,0.00,VWS V13.01,2013-05-28 15:52:00,
2013-05-28 08:58:00,82.2,-14.4,17.72,WSW,253,0.0,0.0,2,0.00,,---,0.00,VWS V13.01,2013-05-28 15:58:00,
2013-05-28 09:03:00,82.8,-14.0,17.72,SSW,203,0.0,4.0,2,0.00,,---,0.00,VWS V13.01,2013-05-28 16:03:00,
2013-05-28 09:08:00,83.5,-13.6,17.72,SSW,201,0.0,0.0,2,0.00,,---,0.00,VWS V13.01,2013-05-28 16:08:00,
2013-05-28 09:14:00,83.7,-13.4,17.72,SW,230,0.0,5.4,2,0.00,,---,0.00,VWS V13.01,2013-05-28 16:14:00,
2013-05-28 09:19:00,84.0,-13.2,17.72,SW,228,0.0,0.0,2,0.00,,---,0.00,VWS V13.01,2013-05-28 16:19:00,
2013-05-28 09:25:00,84.7,-12.8,17.72,SSW,196,0.0,5.8,2,0.00,,---,0.00,VWS V13.01,2013-05-28 16:25:00,
2013-05-28 09:30:00,84.9,-12.6,17.72,WSW,249,0.0,6.3,2,0.00,,---,0.00,VWS V13.01,2013-05-28 16:30:00,
2013-05-28 09:35:00,85.1,-12.5,17.72,SW,227,3.6,5.4,2,0.00,,---,0.00,VWS V13.01,2013-05-28 16:35:00,
2013-05-28 09:40:00,85.5,-12.3,17.72,SW,227,0.0,0.0,2,0.00,,---,0.00,VWS V13.01,2013-05-28 16:40:00,
2013-05-28 09:46:00,86.5,-11.6,17.72,South,178,0.0,0.0,2,0.00,,---,0.00,VWS V13.01,2013-05-28 16:46:00,
2013-05-28 09:51:00,87.1,-11.3,17.72,East,99,0.0,3.6,2,0.00,,---,0.00,VWS V13.01,2013-05-28 16:51:00,
2013-05-28 09:56:00,87.1,-11.3,17.72,WSW,249,4.9,4.9,2,0.00,,---,0.00,VWS V13.01,2013-05-28 16:56:00,
2013-05-28 10:01:00,87.8,-10.8,17.72,WSW,248,0.0,3.1,2,0.00,,---,0.00,VWS V13.01,2013-05-28 17:01:00,
2013-05-28 10:07:00,88.7,-10.2,17.72,SE,126,5.4,5.8,2,0.00,,---,0.00,VWS V13.01,2013-05-28 17:07:00,
2013-05-28 10:12:00,89.1,-10.0,17.72,SSW,192,0.0,5.8,2,0.00,,---,0.00,VWS V13.01,2013-05-28 17:12:00,
2013-05-28 10:17:00,88.9,-10.1,17.72,WSW,251,3.6,9.6,2,0.00,,---,0.00,VWS V13.01,2013-05-28 17:17:00,
2013-05-28 10:22:00,89.2,-9.9,17.72,South,170,4.0,8.1,2,0.00,,---,0.00,VWS V13.01,2013-05-28 17:22:00,
2013-05-28 10:28:00,90.0,-9.4,17.72,West,260,6.7,7.6,2,0.00,,---,0.00,VWS V13.01,2013-05-28 17:28:00,
2013-05-28 10:33:00,89.4,-9.8,17.72,SW,221,5.4,8.1,2,0.00,,---,0.00,VWS V13.01,2013-05-28 17:33:00,
2013-05-28 10:38:00,90.3,-9.2,17.72,SE,137,0.0,7.6,2,0.00,,---,0.00,VWS V13.01,2013-05-28 17:38:00,
2013-05-28 10:43:00,90.9,-8.9,17.72,WSW,241,3.6,10.1,2,0.00,,---,0.00,VWS V13.01,2013-05-28 17:43:00,
2013-05-28 10:48:00,91.2,-8.6,17.72,SW,222,7.2,8.7,2,0.00,,---,0.00,VWS V13.01,2013-05-28 17:48:00,
2013-05-28 10:54:00,90.5,-9.1,17.72,WSW,250,6.3,8.7,2,0.00,,---,0.00,VWS V13.01,2013-05-28 17:54:00,
2013-05-28 10:59:00,91.6,-8.4,17.72,SW,220,3.1,8.3,2,0.00,,---,0.00,VWS V13.01,2013-05-28 17:59:00,
2013-05-28 11:04:00,91.8,-8.3,17.72,SW,218,10.1,11.0,2,0.00,,---,0.00,VWS V13.01,2013-05-28 18:04:00,
2013-05-28 11:10:00,92.7,-7.7,17.72,SW,230,4.9,8.1,2,0.00,,---,0.00,VWS V13.01,2013-05-28 18:10:00,
2013-05-28 11:15:00,91.9,-8.2,17.72,SW,214,6.3,8.3,2,0.00,,---,0.00,VWS V13.01,2013-05-28 18:15:00,
2013-05-28 11:20:00,92.5,-7.8,17.72,South,188,6.3,11.0,2,0.00,,---,0.00,VWS V13.01,2013-05-28 18:20:00,
2013-05-28 11:25:00,92.3,-7.9,17.72,West,275,4.9,4.9,2,0.00,,---,0.00,VWS V13.01,2013-05-28 18:25:00,
2013-05-28 11:30:00,93.0,-7.5,17.72,SSE,153,6.3,8.3,2,0.00,,---,0.00,VWS V13.01,2013-05-28 18:30:00,
2013-05-28 11:35:00,94.1,-6.8,17.72,ESE,104,0.0,4.0,2,0.00,,---,0.00,VWS V13.01,2013-05-28 18:35:00,
2013-05-28 11:40:00,93.0,-7.5,17.72,WSW,252,8.7,8.7,2,0.00,,---,0.00,VWS V13.01,2013-05-28 18:40:00,
2013-05-28 11:46:00,92.8,-7.6,17.72,SW,221,0.0,5.8,2,0.00,,---,0.00,VWS V13.01,2013-05-28 18:46:00,
2013-05-28 11:51:00,93.2,-7.4,17.72,WSW,258,3.6,12.8,2,0.00,,---,0.00,VWS V13.01,2013-05-28 18:51:00,
2013-05-28 11:56:00,93.4,-7.2,17.72,WNW,294,7.6,11.9,2,0.00,,---,0.00,VWS V13.01,2013-05-28 18:56:00,
2013-05-28 12:02:00,92.7,-7.7,17.72,WNW,293,4.0,8.3,2,0.00,,---,0.00,VWS V13.01,2013-05-28 19:02:00,
2013-05-28 12:07:00,92.7,-7.7,17.72,WNW,299,2.2,4.9,2,0.00,,---,0.00,VWS V13.01,2013-05-28 19:07:00,
2013-05-28 12:12:00,92.3,-7.9,17.72,WNW,300,0.0,5.4,2,0.00,,---,0.00,VWS V13.01,2013-05-28 19:12:00,
2013-05-28 12:18:00,91.8,-8.3,17.72,NW,305,5.8,10.5,2,0.00,,---,0.00,VWS V13.01,2013-05-28 19:18:00,
2013-05-28 12:23:00,92.5,-7.8,17.72,WSW,243,5.4,8.3,2,0.00,,---,0.00,VWS V13.01,2013-05-28 19:23:00,
2013-05-28 12:28:00,92.8,-7.6,17.72,WSW,239,5.8,8.1,2,0.00,,---,0.00,VWS V13.01,2013-05-28 19:28:00,
2013-05-28 12:33:00,92.3,-7.9,17.72,WNW,303,3.1,7.6,2,0.00,,---,0.00,VWS V13.01,2013-05-28 19:33:00,
2013-05-28 12:38:00,93.0,-7.5,17.72,WSW,250,10.1,10.1,2,0.00,,---,0.00,VWS V13.01,2013-05-28 19:38:00,
2013-05-28 12:44:00,93.2,-7.4,17.72,West,281,4.0,8.1,2,0.00,,---,0.00,VWS V13.01,2013-05-28 19:44:00,
2013-05-28 12:49:00,92.7,-7.7,17.72,WNW,285,0.0,4.9,2,0.00,,---,0.00,VWS V13.01,2013-05-28 19:49:00,
2013-05-28 12:54:00,93.0,-7.5,17.72,North,7,0.0,3.6,2,0.00,,---,0.00,VWS V13.01,2013-05-28 19:54:00,
2013-05-28 12:59:00,93.2,-7.4,17.72,North,359,7.2,7.2,2,0.00,,---,0.00,VWS V13.01,2013-05-28 19:59:00,
2013-05-28 13:04:00,93.6,-7.1,17.72,WNW,302,0.0,0.0,2,0.00,,---,0.00,VWS V13.01,2013-05-28 20:04:00,
2013-05-28 13:10:00,93.6,-7.1,17.72,WSW,246,5.4,8.1,2,0.00,,---,0.00,VWS V13.01,2013-05-28 20:10:00,
2013-05-28 13:15:00,94.5,-6.6,17.72,WNW,290,5.8,11.0,2,0.00,,---,0.00,VWS V13.01,2013-05-28 20:15:00,
2013-05-28 13:20:00,94.1,-6.8,17.72,WNW,282,5.8,15.0,2,0.00,,---,0.00,VWS V13.01,2013-05-28 20:20:00,
2013-05-28 13:25:00,94.1,-6.8,17.72,WNW,290,8.1,11.9,2,0.00,,---,0.00,VWS V13.01,2013-05-28 20:25:00,
2013-05-28 13:31:00,93.4,-7.2,17.72,WSW,254,6.3,8.1,2,0.00,,---,0.00,VWS V13.01,2013-05-28 20:31:00,
2013-05-28 13:36:00,94.5,-6.6,17.72,West,264,2.7,8.7,2,0.00,,---,0.00,VWS V13.01,2013-05-28 20:36:00,
2013-05-28 13:41:00,94.8,-6.3,17.72,WSW,251,8.1,8.3,2,0.00,,---,0.00,VWS V13.01,2013-05-28 20:41:00,
2013-05-28 13:47:00,94.3,-6.7,17.72,WSW,252,3.1,7.6,2,0.00,,---,0.00,VWS V13.01,2013-05-28 20:47:00,
2013-05-28 13:52:00,94.3,-6.7,17.72,SSW,197,5.8,8.7,2,0.00,,---,0.00,VWS V13.01,2013-05-28 20:52:00,
2013-05-28 13:57:00,95.2,-6.1,17.72,West,260,5.4,7.2,2,0.00,,---,0.00,VWS V13.01,2013-05-28 20:57:00,
2013-05-28 14:02:00,95.2,-6.1,17.72,WNW,298,3.6,10.5,2,0.00,,---,0.00,VWS V13.01,2013-05-28 21:02:00,
2013-05-28 14:07:00,94.8,-6.3,17.72,SW,226,5.8,7.6,2,0.00,,---,0.00,VWS V13.01,2013-05-28 21:07:00,
2013-05-28 14:12:00,95.9,-5.7,17.72,SW,223,10.1,10.1,2,0.00,,---,0.00,VWS V13.01,2013-05-28 21:12:00,
2013-05-28 14:17:00,95.2,-6.1,17.72,West,270,5.8,13.6,2,0.00,,---,0.00,VWS V13.01,2013-05-28 21:17:00,
2013-05-28 14:22:00,95.4,-6.0,17.72,SW,217,10.1,10.1,2,0.00,,---,0.00,VWS V13.01,2013-05-28 21:22:00,
2013-05-28 14:28:00,95.7,-5.8,17.72,SSW,203,5.8,10.5,2,0.00,,---,0.00,VWS V13.01,2013-05-28 21:28:00,
2013-05-28 14:33:00,96.3,-5.4,17.72,South,170,8.1,11.0,2,0.00,,---,0.00,VWS V13.01,2013-05-28 21:33:00,
2013-05-28 14:38:00,95.2,-6.1,17.72,SSW,205,7.6,12.8,2,0.00,,---,0.00,VWS V13.01,2013-05-28 21:38:00,
2013-05-28 14:44:00,94.5,-6.6,17.72,West,271,9.6,10.5,2,0.00,,---,0.00,VWS V13.01,2013-05-28 21:44:00,
2013-05-28 14:49:00,93.7,-7.0,17.72,West,278,4.9,10.5,2,0.00,,---,0.00,VWS V13.01,2013-05-28 21:49:00,
2013-05-28 14:54:00,93.7,-7.0,17.72,West,268,13.6,17.4,2,0.00,,---,0.00,VWS V13.01,2013-05-28 21:54:00,
2013-05-28 14:59:00,94.3,-6.7,17.72,WSW,239,4.0,15.0,2,0.00,,---,0.00,VWS V13.01,2013-05-28 21:59:00,
2013-05-28 15:05:00,94.8,-6.3,17.72,SW,232,6.7,12.8,2,0.00,,---,0.00,VWS V13.01,2013-05-28 22:05:00,
2013-05-28 15:10:00,94.8,-6.3,17.72,WNW,293,7.6,8.7,2,0.00,,---,0.00,VWS V13.01,2013-05-28 22:10:00,
2013-05-28 15:15:00,94.6,-6.4,17.72,WSW,245,8.3,14.1,2,0.00,,---,0.00,VWS V13.01,2013-05-28 22:15:00,
2013-05-28 15:20:00,94.3,-6.7,17.72,WSW,245,5.4,12.8,2,0.00,,---,0.00,VWS V13.01,2013-05-28 22:20:00,
2013-05-28 15:26:00,94.8,-6.3,17.72,SSW,206,10.5,10.5,2,0.00,,---,0.00,VWS V13.01,2013-05-28 22:26:00,
2013-05-28 15:31:00,95.5,-5.9,17.72,WSW,245,13.2,13.2,2,0.00,,---,0.00,VWS V13.01,2013-05-28 22:31:00,
2013-05-28 15:36:00,94.8,-6.3,17.72,WSW,257,5.8,8.7,2,0.00,,---,0.00,VWS V13.01,2013-05-28 22:36:00,
2013-05-28 15:41:00,94.5,-6.6,17.72,West,274,8.3,12.8,2,0.00,,---,0.00,VWS V13.01,2013-05-28 22:41:00,
2013-05-28 15:46:00,94.3,-6.7,17.72,SW,222,5.4,15.4,2,0.00,,---,0.00,VWS V13.01,2013-05-28 22:46:00,
2013-05-28 15:51:00,94.3,-6.7,17.72,WNW,289,8.7,11.0,2,0.00,,---,0.00,VWS V13.01,2013-05-28 22:51:00,
2013-05-28 15:57:00,94.3,-6.7,17.72,SSW,193,4.9,8.1,2,0.00,,---,0.00,VWS V13.01,2013-05-28 22:57:00,
2013-05-28 16:02:00,94.6,-6.4,17.72,SW,217,6.7,12.8,2,0.00,,---,0.00,VWS V13.01,2013-05-28 23:02:00,
2013-05-28 16:07:00,94.8,-6.3,17.72,WSW,246,8.1,13.6,2,0.00,,---,0.00,VWS V13.01,2013-05-28 23:07:00,
2013-05-28 16:12:00,94.8,-6.3,17.72,SW,220,10.1,10.5,2,0.00,,---,0.00,VWS V13.01,2013-05-28 23:12:00,
2013-05-28 16:18:00,95.2,-6.1,17.72,South,181,2.7,8.1,2,0.00,,---,0.00,VWS V13.01,2013-05-28 23:18:00,
2013-05-28 16:23:00,94.8,-6.3,17.72,South,183,5.4,9.6,2,0.00,,---,0.00,VWS V13.01,2013-05-28 23:23:00,
2013-05-28 16:29:00,94.6,-6.4,17.72,WNW,291,10.1,14.5,2,0.00,,---,0.00,VWS V13.01,2013-05-28 23:29:00,
2013-05-28 16:34:00,93.7,-7.0,17.72,South,179,11.0,11.0,2,0.00,,---,0.00,VWS V13.01,2013-05-28 23:34:00,
2013-05-28 16:39:00,94.5,-6.6,17.72,South,182,5.4,10.1,2,0.00,,---,0.00,VWS V13.01,2013-05-28 23:39:00,
2013-05-28 16:44:00,94.1,-6.8,17.72,SSW,211,7.6,12.8,2,0.00,,---,0.00,VWS V13.01,2013-05-28 23:44:00,
2013-05-28 16:50:00,93.6,-7.1,17.72,South,183,0.0,7.6,2,0.00,,---,0.00,VWS V13.01,2013-05-28 23:50:00,
2013-05-28 16:55:00,93.7,-7.0,17.72,SSW,211,6.3,11.0,2,0.00,,---,0.00,VWS V13.01,2013-05-28 23:55:00,
2013-05-28 17:00:00,93.7,-7.0,17.72,SW,227,4.9,9.2,2,0.00,,---,0.00,VWS V13.01,2013-05-29 00:00:00,
2013-05-28 17:06:00,93.9,-6.9,17.72,SSW,205,5.8,10.1,2,0.00,,---,0.00,VWS V13.01,2013-05-29 00:06:00,
2013-05-28 17:11:00,93.6,-7.1,17.72,SSW,208,8.1,11.4,2,0.00,,---,0.00,VWS V13.01,2013-05-29 00:11:00,
2013-05-28 17:16:00,93.2,-7.4,17.72,SW,233,5.8,12.3,2,0.00,,---,0.00,VWS V13.01,2013-05-29 00:16:00,
2013-05-28 17:21:00,93.0,-7.5,17.72,South,172,5.4,8.1,2,0.00,,---,0.00,VWS V13.01,2013-05-29 00:21:00,
2013-05-28 17:26:00,93.2,-7.4,17.72,SSW,200,9.2,13.6,2,0.00,,---,0.00,VWS V13.01,2013-05-29 00:26:00,
2013-05-28 17:32:00,93.2,-7.4,17.72,West,271,4.5,8.1,2,0.00,,---,0.00,VWS V13.01,2013-05-29 00:32:00,
2013-05-28 17:37:00,92.7,-7.7,17.72,WSW,239,10.5,10.5,2,0.00,,---,0.00,VWS V13.01,2013-05-29 00:37:00,
2013-05-28 17:43:00,92.5,-7.8,17.72,South,185,6.3,12.3,2,0.00,,---,0.00,VWS V13.01,2013-05-29 00:43:00,
2013-05-28 17:48:00,92.1,-8.1,17.72,SW,221,8.1,10.1,2,0.00,,---,0.00,VWS V13.01,2013-05-29 00:48:00,
2013-05-28 17:53:00,91.8,-8.3,17.72,SW,219,13.2,13.2,2,0.00,,---,0.00,VWS V13.01,2013-05-29 00:53:00,
2013-05-28 17:58:00,91.4,-8.5,17.72,SSE,165,10.5,10.5,2,0.00,,---,0.00,VWS V13.01,2013-05-29 00:58:00,
2013-05-28 18:03:00,91.2,-8.6,17.72,WSW,252,7.6,9.6,2,0.00,,---,0.00,VWS V13.01,2013-05-29 01:03:00,
2013-05-28 18:09:00,90.7,-9.0,17.72,SSW,212,8.7,11.0,2,0.00,,---,0.00,VWS V13.01,2013-05-29 01:09:00,
2013-05-28 18:14:00,90.3,-9.2,17.72,WSW,251,5.4,10.5,2,0.00,,---,0.00,VWS V13.01,2013-05-29 01:14:00,
2013-05-28 18:20:00,90.1,-9.3,17.72,WSW,254,5.8,8.3,2,0.00,,---,0.00,VWS V13.01,2013-05-29 01:20:00,
2013-05-28 18:25:00,89.8,-9.5,17.72,WSW,256,7.6,9.6,2,0.00,,---,0.00,VWS V13.01,2013-05-29 01:25:00,
2013-05-28 18:30:00,89.6,-9.6,17.72,SSW,196,4.9,9.6,2,0.00,,---,0.00,VWS V13.01,2013-05-29 01:30:00,
2013-05-28 18:35:00,89.2,-9.9,17.72,SW,222,3.6,10.1,2,0.00,,---,0.00,VWS V13.01,2013-05-29 01:35:00,
2013-05-28 18:41:00,88.7,-10.2,17.72,SW,235,3.1,8.3,2,0.00,,---,0.00,VWS V13.01,2013-05-29 01:41:00,
2013-05-28 18:46:00,88.5,-10.3,17.72,SW,222,6.3,14.5,2,0.00,,---,0.00,VWS V13.01,2013-05-29 01:46:00,
2013-05-28 18:51:00,88.3,-10.5,17.72,South,188,5.4,8.3,2,0.00,,---,0.00,VWS V13.01,2013-05-29 01:51:00,
2013-05-28 18:56:00,87.8,-10.8,17.72,SSW,199,10.1,11.9,2,0.00,,---,0.00,VWS V13.01,2013-05-29 01:56:00,
2013-05-28 19:02:00,87.4,-11.0,17.72,West,275,5.4,11.4,2,0.00,,---,0.00,VWS V13.01,2013-05-29 02:02:00,
2013-05-28 19:07:00,87.1,-11.3,17.72,SW,232,4.0,8.1,2,0.00,,---,0.00,VWS V13.01,2013-05-29 02:07:00,
2013-05-28 19:12:00,86.7,-11.5,17.72,WSW,237,4.9,7.6,2,0.00,,---,0.00,VWS V13.01,2013-05-29 02:12:00,
2013-05-28 19:17:00,86.4,-11.7,17.72,SW,234,3.1,8.7,2,0.00,,---,0.00,VWS V13.01,2013-05-29 02:17:00,
2013-05-28 19:22:00,85.8,-12.1,17.72,West,277,3.6,9.6,2,0.00,,---,0.00,VWS V13.01,2013-05-29 02:22:00,
2013-05-28 19:27:00,85.6,-12.2,17.72,SW,230,7.6,7.6,2,0.00,,---,0.00,VWS V13.01,2013-05-29 02:27:00,
2013-05-28 19:33:00,85.3,-12.4,17.72,SW,235,8.3,10.5,2,0.00,,---,0.00,VWS V13.01,2013-05-29 02:33:00,
2013-05-28 19:38:00,84.9,-12.6,17.72,WSW,239,7.2,10.5,2,0.00,,---,0.00,VWS V13.01,2013-05-29 02:38:00,
2013-05-28 19:43:00,84.4,-13.0,17.72,West,279,8.1,13.6,2,0.00,,---,0.00,VWS V13.01,2013-05-29 02:43:00,
2013-05-28 19:48:00,83.8,-13.3,17.72,WSW,248,5.8,11.4,2,0.00,,---,0.00,VWS V13.01,2013-05-29 02:48:00,
2013-05-28 19:53:00,83.5,-13.6,17.72,WSW,254,5.4,8.1,2,0.00,,---,0.00,VWS V13.01,2013-05-29 02:53:00,
2013-05-28 19:59:00,83.3,-13.7,17.72,West,262,10.1,11.9,2,0.00,,---,0.00,VWS V13.01,2013-05-29 02:59:00,
2013-05-28 20:04:00,82.8,-14.0,17.72,WNW,287,8.1,13.2,2,0.00,,---,0.00,VWS V13.01,2013-05-29 03:04:00,
2013-05-28 20:09:00,82.6,-14.1,17.72,West,259,10.1,11.9,2,0.00,,---,0.00,VWS V13.01,2013-05-29 03:09:00,
2013-05-28 20:14:00,82.2,-14.4,17.72,West,262,8.1,14.1,2,0.00,,---,0.00,VWS V13.01,2013-05-29 03:14:00,
2013-05-28 20:20:00,82.0,-14.5,17.72,West,259,4.0,12.3,2,0.00,,---,0.00,VWS V13.01,2013-05-29 03:20:00,
2013-05-28 20:25:00,81.9,-14.6,17.72,West,264,8.1,8.1,2,0.00,,---,0.00,VWS V13.01,2013-05-29 03:25:00,
2013-05-28 20:30:00,81.5,-14.8,17.72,WNW,299,8.1,11.0,2,0.00,,---,0.00,VWS V13.01,2013-05-29 03:30:00,
2013-05-28 20:36:00,81.3,-14.9,17.72,WSW,240,5.8,7.6,2,0.00,,---,0.00,VWS V13.01,2013-05-29 03:36:00,
2013-05-28 20:41:00,81.1,-15.1,17.72,SW,236,6.3,12.3,2,0.00,,---,0.00,VWS V13.01,2013-05-29 03:41:00,
2013-05-28 20:46:00,81.0,-15.2,17.72,WSW,243,3.6,8.7,2,0.00,,---,0.00,VWS V13.01,2013-05-29 03:46:00,
2013-05-28 20:51:00,80.6,-15.4,17.72,West,262,6.3,11.0,2,0.00,,---,0.00,VWS V13.01,2013-05-29 03:51:00,
2013-05-28 20:56:00,80.4,-15.5,17.72,WSW,254,4.0,8.7,2,0.00,,---,0.00,VWS V13.01,2013-05-29 03:56:00,
2013-05-28 21:01:00,80.2,-15.6,17.72,West,275,4.0,9.6,2,0.00,,---,0.00,VWS V13.01,2013-05-29 04:01:00,
2013-05-28 21:02:00,80.2,-15.6,17.72,West,264,8.1,8.7,2,0.00,,---,0.00,VWS V13.01,2013-05-29 04:02:00,
2013-05-28 21:03:00,80.2,-15.6,17.72,West,268,6.3,8.7,2,0.00,,---,0.00,VWS V13.01,2013-05-29 04:03:00,
2013-05-28 21:08:00,80.1,-15.8,17.72,WSW,257,8.3,8.3,2,0.00,,---,0.00,VWS V13.01,2013-05-29 04:08:00,
2013-05-28 21:13:00,80.1,-15.8,17.72,WNW,287,7.6,10.1,2,0.00,,---,0.00,VWS V13.01,2013-05-29 04:13:00,
2013-05-28 21:19:00,79.9,-15.9,17.72,West,273,3.6,11.9,2,0.00,,---,0.00,VWS V13.01,2013-05-29 04:19:00,
2013-05-28 21:24:00,79.7,-16.0,17.72,WNW,296,2.7,4.0,2,0.00,,---,0.00,VWS V13.01,2013-05-29 04:24:00,
2013-05-28 21:29:00,79.5,-16.1,17.72,NW,309,3.1,6.3,2,0.00,,---,0.00,VWS V13.01,2013-05-29 04:29:00,
2013-05-28 21:34:00,79.3,-16.2,17.72,WNW,282,3.1,4.9,2,0.00,,---,0.00,VWS V13.01,2013-05-29 04:34:00,
2013-05-28 21:40:00,79.0,-16.5,17.72,WNW,282,0.0,0.0,2,0.00,,---,0.00,VWS V13.01,2013-05-29 04:40:00,
2013-05-28 21:45:00,78.8,-16.6,17.72,WNW,290,0.0,5.4,2,0.00,,---,0.00,VWS V13.01,2013-05-29 04:45:00,
2013-05-28 21:50:00,78.6,-16.7,17.72,WNW,290,0.0,4.0,2,0.00,,---,0.00,VWS V13.01,2013-05-29 04:50:00,
2013-05-28 21:55:00,78.4,-16.8,17.72,WNW,294,0.0,0.0,2,0.00,,---,0.00,VWS V13.01,2013-05-29 04:55:00,
2013-05-28 22:00:00,78.1,-17.0,17.72,WNW,294,0.0,0.0,2,0.00,,---,0.00,VWS V13.01,2013-05-29 05:00:00,
2013-05-28 22:05:00,77.9,-17.1,17.72,WNW,294,0.0,0.0,2,0.00,,---,0.00,VWS V13.01,2013-05-29 05:05:00,
2013-05-28 22:11:00,77.4,-17.5,17.72,WNW,294,0.0,0.0,2,0.00,,---,0.00,VWS V13.01,2013-05-29 05:11:00,
2013-05-28 22:16:00,76.8,-17.8,17.72,WNW,294,0.0,0.0,2,0.00,,---,0.00,VWS V13.01,2013-05-29 05:16:00,
2013-05-28 22:21:00,76.3,-18.2,17.72,WNW,294,0.0,0.0,2,0.00,,---,0.00,VWS V13.01,2013-05-29 05:21:00,
2013-05-28 22:26:00,75.7,-18.5,17.72,WNW,294,0.0,0.0,2,0.00,,---,0.00,VWS V13.01,2013-05-29 05:26:00,
2013-05-28 22:31:00,75.6,-18.6,17.72,WNW,294,0.0,0.0,2,0.00,,---,0.00,VWS V13.01,2013-05-29 05:31:00,
2013-05-28 22:36:00,75.4,-18.8,17.72,WNW,294,0.0,0.0,2,0.00,,---,0.00,VWS V13.01,2013-05-29 05:36:00,
2013-05-28 22:42:00,75.0,-19.0,17.72,WNW,294,0.0,0.0,2,0.00,,---,0.00,VWS V13.01,2013-05-29 05:42:00,
2013-05-28 22:47:00,75.0,-19.0,17.72,WNW,294,0.0,0.0,2,0.00,,---,0.00,VWS V13.01,2013-05-29 05:47:00,
2013-05-28 22:52:00,74.8,-19.1,17.72,WNW,294,0.0,0.0,2,0.00,,---,0.00,VWS V13.01,2013-05-29 05:52:00,
2013-05-28 22:57:00,74.5,-19.3,17.72,WNW,294,0.0,0.0,2,0.00,,---,0.00,VWS V13.01,2013-05-29 05:57:00,
2013-05-28 23:02:00,74.3,-19.5,17.72,WNW,294,0.0,0.0,2,0.00,,---,0.00,VWS V13.01,2013-05-29 06:02:00,
2013-05-28 23:08:00,73.9,-19.7,17.72,WNW,294,0.0,0.0,2,0.00,,---,0.00,VWS V13.01,2013-05-29 06:08:00,
2013-05-28 23:13:00,73.8,-19.8,17.72,WNW,294,0.0,0.0,2,0.00,,---,0.00,VWS V13.01,2013-05-29 06:13:00,
2013-05-28 23:18:00,73.9,-19.7,17.72,WNW,294,0.0,0.0,2,0.00,,---,0.00,VWS V13.01,2013-05-29 06:18:00,
2013-05-28 23:23:00,73.9,-19.7,17.72,WNW,292,0.0,0.0,2,0.00,,---,0.00,VWS V13.01,2013-05-29 06:23:00,
2013-05-28 23:29:00,73.9,-19.7,17.72,WNW,292,0.0,0.0,2,0.00,,---,0.00,VWS V13.01,2013-05-29 06:29:00,
2013-05-28 23:34:00,73.4,-20.0,17.72,WNW,292,0.0,0.0,2,0.00,,---,0.00,VWS V13.01,2013-05-29 06:34:00,
2013-05-28 23:39:00,73.0,-12.3,17.72,WNW,292,0.0,0.0,3,0.00,,---,0.00,VWS V13.01,2013-05-29 06:39:00,
2013-05-28 23:45:00,72.7,-12.6,17.72,WNW,292,0.0,0.0,3,0.00,,---,0.00,VWS V13.01,2013-05-29 06:45:00,
2013-05-28 23:50:00,72.3,-12.8,17.72,WNW,292,0.0,0.0,3,0.00,,---,0.00,VWS V13.01,2013-05-29 06:50:00,
2013-05-28 23:55:00,72.1,-12.9,17.72,WNW,292,0.0,0.0,3,0.00,,---,0.00,VWS V13.01,2013-05-29 06:55:00,